Location: Unspecified
(43.4354°N, 0.0000°E)
Time: 14:26:27
(UTC+00:00)

S-56A Canister/Altair - Pass Details

Date: 01 July 2019
Orbit: 632 x 2500 km, 38.9° (Epoch: 16 July)

Event Time Altitude Azimuth Distance (km) Brightness Sun altitude
Rises 18:56:19 0° 280° (W) 4,620 13.3 6.8°
Reaches altitude 10° 19:00:44 10° 265° (W) 3,260 11.9 6.1°
Maximum altitude 19:05:55 20° 223° (SW) 2,195 10.1 5.2°
Drops below altitude 10° 19:10:02 10° 178° (S) 2,488 9.9 4.6°
Sets 19:12:52 0° 160° (SSE) 3,222 10.3 4.1°
